カタログに戻る

STARLINK-3355

運用中通信VLEO
NORAD 50808·PAYLOAD·🇺🇸 United States

打ち上げ Jan 6, 2022 から Cape Canaveral Space Force Station

Loading…

次のパス (今後24時間)

TLE

最新Source: CelesTrak SupGP

元期: Sep 14, 2026, 21:39 UTC

1 50808C 22001F   26257.90256944 -.00013849  00000+0 -44540-3 0  2570
2 50808  53.1599  17.8258 0001212  76.4132 202.4337 15.31705241    16

AllMySatでSTARLINK-3355をリアルタイム追跡

Download on the App Store